Terug naar catalogus

THORAD AGENA D DEB

ActiefLEO
NORAD 4895·DEBRIS·🇺🇸 United States

Gelanceerd Sep 30, 1969 vanaf Vandenberg Space Force Base

Loading…

Volgende Passages (komende 24 uur)

TLE

VersSource: Space-Track

Epoch: Sep 13, 2026, 22:47 UTC

1  4895U 69082HE  26256.94938542  .00000719  00000-0  23007-3 0  9998
2  4895  70.1686 236.9205 0038992 164.9387 195.2916 14.42956016956003

Volg THORAD AGENA D DEB in realtime met AllMySat

Download on the App Store